{"data":{"norad_id":54033,"intl_designator":"2022-131A","name":"ANGOSAT 2","alt_names":[],"object_type":"PAYLOAD","status":"ACTIVE","operator":null,"country":"ANG","launch_date":"2022-10-12","launch_site_code":"TYMSC","launch_vehicle":null,"mission":null,"orbit_class":"UNKNOWN","rcs_meters":null,"size_class":null,"mass_kg":null,"dimensions":null,"purposes":["comms"],"wikipedia_slug":null,"has_3d_model":false,"image_url":null,"decayed_at":null,"tle_current":{"epoch":"2026-09-18T18:50:34.445760Z","epoch_age_seconds":166380,"freshness":"FRESH","line1":"1 54033U 22131A   26261.78512090  .00000131  00000+0  00000+0 0  9996","line2":"2 54033   0.0029  64.1863 0001192 193.5049  45.6659  1.00270934 14411","mean_motion":1.00270934,"eccentricity":0.0001192,"inclination_deg":0.0029,"raan_deg":64.1863,"arg_perigee_deg":193.5049,"mean_anomaly_deg":45.6659,"bstar":0,"rev_number":1441,"period_min":1436.1090921922,"perigee_km":35781.807464583,"apogee_km":35791.859593557,"semimajor_km":42164.97052907,"source":"CELESTRAK","updated_at":"2026-09-20T09:00:35.307069Z"}}}